User: anonymous   Login
Location: Isola Pescaroli
(45.0500°N, 10.1667°E)
Time: 12:48:13
(UTC+00:00)
Language:

Cosmos 1844 - Orbit

View from above orbital plane
View from above orbital plane
View from above satellite
View from above satellite

Ground track
Ground track

The orbit data is extracted from the following two-line orbital elements,

1 17973U 87041A   21131.50970804  .00000260  00000-0  16124-3 0  9993
2 17973  70.8974 151.6013 0029996 152.3761 207.8963 14.14123577754298
Epoch (UTC): 11 May 2021 12:13:58
Eccentricity: 0.0029996
inclination: 70.8974°
perigee height: 823 km
apogee height: 867 km
right ascension of ascending node: 151.6013°
argument of perigee: 152.3761°
revolutions per day: 14.14123577
mean anomaly at epoch: 207.8963°
orbit number at epoch: 75429

The dashed part of the orbit path shows where the satellite is in the earth's shadow,  

DLR